Licenciado Gustavo Díaz Ordaz International Airport
MMPR : rendu visible

Aérodrome :











RETROUVEZ-NOUS SUR...

 
LOGIN :

S'inscrire | Disclaimer

   EN    FR    IT 

 









Légende :    VFR   VFR Marginal   IFR   IFR Intensif   IFR Très Intensif
Visi : 
Plafond : 
>= 8 km
>= 3000ft
5 à 8 km
1000 à 3000 ft
1500m à 5 km
500 à 1000 ft
800 à 1500m
200 à 500 ft
< 800m
< 200 ft
Symboles :   Orages  Brouillard  Fortes neiges  Fortes précipitations  Vent > 20 kt






- Altitude de l'aérodrome : 23 ft
- Code IATA : PVR


MMPR - Licenciado Gustavo Díaz Ordaz International

DERNIER METAR :
  • 241450Z 04005KT 15SM SKC 20/17 A2995 RMK SLP144 52007 979

METARs EXPIRÉS :
  • 241344Z 00000KT 15SM SKC 18/16 A2995
  • 241241Z 02004KT 15SM SKC 18/16 A2994 RMK CS

TAF TAF MMPR
Valide du 24 à 12h jusqu'au 25 à 18h UTC


241056Z 2412/2518 04005KT P6SM SKC TX28/2422Z TN20/2412Z
FM241800 22010KT P6SM SCT020 BKN250
FM250600 34005KT P6SM SCT250
FM251700 22012KT P6SM BKN250



MET'MAP, la Météo Aéronautique d'un coup d'oeil ! - Copyright ORBIFLY Décembre 2007 - Disclaimer

ORBIFLY MET'MAP TEAM :

Programmation & Développement : Alexandra Zaïnal
Sur une idée originale de : Baudouin d'Aumeries
Assistance à la programmation : Marc-Olivier Méhu
Soutien technique & logistique : Manuel Goepfert

Contact : metmap@orbifly.com




SOURCES & CREDITS :

   NOAA       Earth
Advisory